Погода в Чернигове

Хотите узнать прогноз погоды в Чернигове? Тогда Вам сюда: Погода в Чернигове

Поиск расширенной информации на нашем сайте:

Полезная информация:

Новости сайта



02.01.2020
Опубликован Долгосрочный прогноз погоды по городам России и ближнего зарубежья на январь 2020 года.
Карты: Прогноз на январь и февраль 2020 года, Сравнение прогнозируемой аномалии приземной температуры воздуха на январь 2020 года по разным моделям.




Погода в Чернигове - сегодня

Время (UTC), дата Ветер
(°,м/с) 
Видим.   Явления Облачность Т
(°С)
Тd
(°С)
f(%) Тe
(°С)
Pmin
(гПа)
dP
(гПа)
Po
(мм)
O2
(г/м3)
Тmin Tmax R s Состояние
почвы
12 16.04.21 тихо ()   10 км  в посл. час ливневой дождь  10/10 840 м кучево-дожд. 
[Cb calv]
+11.1 +8.7 85 +11  1012  0.7  748  288           
15 16.04.21 тихо ()   4000 м  слаб. ливневой дождь  10/10 660 м кучево-дожд. 
[Cb cap]
+8.7 +7.9 95 +9  1012.7  0.5  749  291           
18 16.04.21 130 (ЮВ) н/о  в посл. час ливневой дождь  10/10 600 м кучево-дожд. 
[Cb calv]
+8.6 +8 96 +10  1013.8  1.1  749  291    +11.4     
21 16.04.21 090 (В) н/о  дымка  10/10 420 м 
[St]
+8 +7.6 97 +8  1014.6  0.8  750  292           
00 17.04.21 130 (ЮВ) н/о  дымка  10/10 420 м 
[St]
+6.1 +5.2 94 +7  1015.3  0.6  750  295           
03 17.04.21 120 (ЮВ) 10 км  дымка  10/10 600 м 
[Sc]
+5.3 +4.8 97 +6  1016.6  1.2  751  296           
06 17.04.21 120 (ЮВ) 10 км    10/10 720 м 
[Sc]
+6.3 +2.4 76 +5  1017.8  1.2  752  296  +5         
09 17.04.21 120 (ЮВ) 10 км    10/6 600 м средняя 
[Sc|Ac und]
+9.9 +4 67 +9  1018.3  0.7  753  292           
12 17.04.21 130 (ЮВ) 20000 м    10/4 1000 м кучево-дожд., средняя, верхняя 
[Cb cap|Ac und|Ci fib]
+11.8 +3.4 56 +12  1018.3  0.1  753  290           
15 17.04.21 тихо ()   10 км    10/3 1000 м кучево-дожд., средняя, верхняя 
[Cb cap|Ac und|Ci fib]
+11.5 +3.3 57 +12  1018  -0.3  753  291           
18 17.04.21 260 (З) н/о    10/0 средняя, верхняя 
[Ac und|Ci fib]
+9.2 +5.4 77 +9  1018  -0.1  753  292    +12.4       
21 17.04.21 290 (З) н/о    10/6 720 м кучево-дожд., средняя 
[Cb cap|Ac und]
+8.6 +7.1 90 +8  1017.7  -0.3  752  293           
00 18.04.21 270 (З) н/о  слаб. ливневой дождь  10/10 480 м кучево-дожд. 
[Cb cap]
+6.9 +5.3 90 +6  1016.8  -1  752  295           
03 18.04.21 270 (З) 4000 м  слаб. ливневой дождь  10/10 420 м 
[Frnb]
+6.9 +6 94 +5  1015.2  -1.6  750  294           
06 18.04.21 320 (СЗ) 4000 м  в посл. час ливневой дождь  10/10 300 м кучево-дожд. 
[Cb cap]
+7.7 +7.3 97 +6  1014.6  -0.5  750  293  +6       
09 18.04.21 360 (С) 10 км  {ливн. осадки}  10/10 900 м кучево-дожд. 
[Cb cap]
+9.7 +6.3 79 +9  1015.6  751  291           
12 18.04.21 040 (СВ) 10 км  {ливн. осадки}  10/10 1080 м кучево-дожд. 
[Cb cap]
+10 +4.4 68 +9  1017.2  1.6  752  292           
15 18.04.21 040 (СВ) 10 км    10/10 1000 м 
[Sc]
+10.3 +4 65 +10  1018.2  753  292           
18 18.04.21 040 (СВ) н/о    ясно 
+5.2 +3.5 89 +5  1019.2  0.7  753  297    +10.6  0.0     
21 18.04.21 360 (С) н/о  дымка  ясно 
+3.1 +2.3 94 +4  1018.7  -0.6  753  300           
00 19.04.21 тихо ()   н/о  дымка  ясно 
+1.9 +1.4 96 +2  1018.5  -0.2  753  301           
03 19.04.21 360 (С) 4000 м  дымка  ясно 
+2.9 +2.1 94 +2  1018.4  -0.1  753  300           
06 19.04.21 030 (СВ) 10 км    4/0 средняя 
[Ac trans]
+8.2 +5.5 83 +7  1018.3  0.2  753  294  +1.2         
09 19.04.21 030 (СВ) 20000 м    8/8 1000 м 
[Cu hum]
+10.5 +3.4 61 +10  1017.9  -0.3  752  291           
12 19.04.21 060 (СВ) 20000 м  слаб. ливневой дождь  10/10 1000 м кучево-дожд. 
[Cb cap]
+11.1 +4.4 63 +11  1017.6  -0.2  752  291      0.0     
Время (UTC), дата Ветер
(°,м/с) 
Видим.   Явления Облачность Т
(°С)
Тd
(°С)
f(%) Тe
(°С)
Pmin
(гПа)
dP
(гПа)
Po
(мм)
O2
(г/м3)
Тmin Tmax R s Состояние
почвы

Для получения пояснительной информации подведите курсор к названию столбца.

ПОГОДА в Чернигове - архив

Всё, что Вы хотите узнать о погоде в Чернигове - удобно и подробно!

Выберите нужную дату (начиная с 1 января 2019* года) и нажмите кнопку "Найти".
Будут отображены архивные сводки погоды по пункту Чернигов, начиная с указанной даты.


Отображать данные в формате CSV (для использования в таблицах Excel)


Внимание! Наш архив погоды предназначен исключительно для личного некоммерческого использования в познавательных целях. Если Вам необходимы официальные справки о состоянии погоды (для производственных, юридических, коммерческих и т.п. целей), обращайтесь в органы Росгидромета.

*Примечание: данная дата относится к архиву по метеостанциям СССР (Россия, СНГ, Балтия).
Архив по метеостанциям Зарубежной Европы и Азии (кроме Китая) хранится 10 дней, по другим регионам земного шара (Китай, Африка, Америка, Австралия, Океания) - 1 день.

Чернигов - район местоположения метеостанции


Название, широта, долгота, высота метеостанции:
Чернигов 51.5°ш. 31.2°д. 141 м над ур. моря [Украина]

Дополнительная информация

В oтличие oт бoльшинства пoгoдных сайтoв мы публикуем пoдрoбную метеoинфoрмацию в детальнoм прoфессиoнальнoм фoрмате.

Характеристики температуры и влажнoсти вoздуха измеряются на высoте 2 м в тени вдали oт зданий и деревьев.
Скoрoсть ветра измеряется на высoте 10 м (на урoвне рoста челoвека скoрoсть ветра ниже в 1.5-2 раза). Если метеoстанция нахoдится в гoрoде или в лесу, тo скoрoсть ветра занижена на 2-4 м/с пo сравнению с oткрытым местoм. Скoрoсть ветра над акватoриями крупных рек и oзёр, а также на вершинах хoлмoв на 2-5 м/с выше, чем в oбычных услoвиях.
Атмoсфернoе давление в разных тoчках местнoсти мoжет значительнo oтличаться oт давления на метеoстанции, в зависимoсти oт услoвий рельефа (при пoдъёме на 10 м давление пoнижается примернo на 1 мм рт.ст.).